Location: Newark
(9.4667°S, 159.8167°E)
Time: 16:25:48
(UTC+00:00)

Vanguard 1 Rocket - All Passes

Search period start: 18 November 2019 00:00
Search period end: 28 November 2019 00:00
Orbit: 651 x 4226 km, 34.3° (Epoch: 17 November)

Date Brightness Start Highest point End Pass type
(mag) Time Alt. Az. Time Alt. Az. Time Alt. Az.
18 Nov - 01:14:03 10° NW 01:29:33 85° NE 01:55:44 10° SE daylight
18 Nov - 03:43:17 10° W 04:04:10 50° SSW 04:29:05 10° SE daylight
18 Nov - 06:20:53 10° WSW 06:43:45 35° S 07:01:36 10° ESE daylight
18 Nov - 09:00:11 10° SW 09:20:56 42° SSE 09:32:37 10° E visible
18 Nov - 11:35:09 10° SW 11:51:09 84° NW 11:58:55 10° NE visible
18 Nov - 14:12:43 10° WNW 14:15:47 12° NW 14:18:22 10° NNW night (unlit)
18 Nov - 21:45:07 10° NNE 21:48:58 12° NE 21:53:33 10° ENE daylight
19 Nov - 00:03:08 10° NW 00:15:52 60° NE 00:38:58 10° ESE daylight
19 Nov - 02:29:25 10° WNW 02:47:33 63° SSW 03:13:59 10° SE daylight
19 Nov - 05:03:15 10° WSW 05:25:41 38° SSW 05:47:05 10° SE daylight
19 Nov - 07:42:47 10° SW 08:05:12 37° S 08:19:39 10° ESE visible
19 Nov - 10:19:10 10° SW 10:38:34 66° SSE 10:48:08 10° ENE visible
19 Nov - 12:54:25 10° WSW 13:05:04 33° NW 13:11:17 10° NNE visible
19 Nov - 22:53:19 10° NNW 23:03:23 36° NE 23:20:51 10° ESE daylight
20 Nov - 01:17:02 10° WNW 01:32:12 82° SW 01:58:15 10° SE daylight
20 Nov - 03:47:14 10° W 04:07:47 45° SSW 04:32:04 10° SE daylight
20 Nov - 06:24:58 10° WSW 06:48:02 35° S 07:05:41 10° ESE daylight
20 Nov - 09:02:46 10° SW 09:24:35 50° SSE 09:36:27 10° E visible
20 Nov - 11:37:54 10° WSW 11:53:54 65° NW 12:01:50 10° NE visible
20 Nov - 21:45:14 10° N 21:51:36 17° NE 22:00:34 10° E daylight
21 Nov - 00:05:48 10° NW 00:18:16 74° NE 00:41:47 10° ESE daylight
21 Nov - 02:32:59 10° W 02:50:47 54° SSW 03:16:36 10° SE daylight
21 Nov - 05:07:32 10° WSW 05:29:52 36° S 05:50:49 10° ESE daylight
21 Nov - 07:45:53 10° SW 08:09:09 42° SSE 08:23:45 10° E visible
21 Nov - 10:21:36 10° SW 10:41:38 83° SE 10:51:24 10° ENE visible
21 Nov - 12:58:27 10° W 13:07:31 23° NW 13:13:21 10° N visible
21 Nov - 22:55:37 10° NNW 23:05:41 47° NE 23:24:24 10° ESE daylight
22 Nov - 01:20:14 10° WNW 01:35:06 69° SSW 02:00:43 10° SE daylight
22 Nov - 03:51:23 10° WSW 04:11:39 40° SSW 04:35:18 10° SE daylight
22 Nov - 06:28:42 10° SW 06:52:14 37° S 07:09:52 10° ESE daylight
22 Nov - 09:05:14 10° SW 09:28:00 61° SSE 09:40:04 10° ENE visible
22 Nov - 11:40:55 10° WSW 11:56:27 49° NW 12:04:31 10° NNE visible
22 Nov - 21:46:42 10° N 21:54:03 24° NE 22:05:41 10° E daylight
23 Nov - 00:08:42 10° NW 00:20:52 88° NE 00:44:23 10° SE daylight
23 Nov - 02:36:47 10° W 02:54:18 47° SSW 03:19:22 10° SE daylight
23 Nov - 05:11:44 10° WSW 05:34:10 36° S 05:54:50 10° ESE daylight
23 Nov - 07:48:42 10° SW 08:12:54 48° SSE 08:27:41 10° E visible
23 Nov - 10:24:08 10° WSW 10:44:28 80° NW 10:54:27 10° NE visible
23 Nov - 13:03:25 10° W 13:10:00 16° NW 13:14:49 10° NNW visible
23 Nov - 22:58:11 10° NW 23:08:04 60° NE 23:27:31 10° ESE daylight
24 Nov - 01:23:41 10° WNW 01:38:16 59° SSW 02:03:12 10° SE daylight
24 Nov - 03:55:37 10° WSW 04:15:46 37° S 04:38:51 10° SE daylight
24 Nov - 06:32:06 10° SW 06:56:18 41° SSE 07:14:02 10° E daylight
24 Nov - 09:07:38 10° SW 09:31:10 74° SSE 09:43:27 10° ENE visible
24 Nov - 11:44:21 10° WSW 11:58:51 37° NW 12:06:56 10° NNE visible
24 Nov - 21:48:42 10° NNW 21:56:26 33° NE 22:09:53 10° ESE daylight
25 Nov - 00:11:49 10° WNW 00:23:43 77° SSW 00:46:51 10° SE daylight
25 Nov - 02:40:47 10° W 02:58:05 42° SSW 03:22:22 10° SE daylight
25 Nov - 05:15:40 10° SW 05:38:26 37° S 05:59:01 10° ESE daylight
25 Nov - 07:51:19 10° SW 08:16:23 57° SSE 08:31:25 10° ENE visible
25 Nov - 10:26:52 10° WSW 10:47:03 64° NW 10:57:18 10° NE visible
25 Nov - 13:11:12 10° WNW 13:12:35 10° NW 13:13:53 10° NW visible
25 Nov - 20:41:27 10° NNE 20:45:19 14° NE 20:50:13 10° ENE daylight
25 Nov - 23:00:58 10° NW 23:10:38 75° NE 23:30:19 10° ESE daylight
26 Nov - 01:27:21 10° W 01:41:42 50° SSW 02:05:46 10° SE daylight
26 Nov - 03:59:49 10° WSW 04:20:02 36° S 04:42:43 10° ESE daylight
26 Nov - 06:35:11 10° SW 07:00:08 46° SSE 07:18:05 10° E daylight
26 Nov - 09:10:05 10° SW 09:34:03 88° SE 09:46:37 10° NE visible
26 Nov - 11:48:19 10° W 12:01:13 27° NW 12:09:04 10° N visible
26 Nov - 21:51:03 10° NNW 21:58:50 44° NE 22:13:28 10° ESE daylight
27 Nov - 00:15:09 10° WNW 00:26:50 64° SSW 00:49:15 10° SE daylight
27 Nov - 02:44:56 10° WSW 03:02:05 38° S 03:25:40 10° SE daylight
27 Nov - 05:19:17 10° SW 05:42:36 40° SSE 06:03:15 10° ESE daylight
27 Nov - 07:53:50 10° SW 08:19:36 67° SSE 08:34:54 10° ENE visible
27 Nov - 10:29:52 10° WSW 10:49:28 51° NW 10:59:54 10° NNE visible
27 Nov - 20:42:30 10° N 20:47:50 20° NE 20:55:43 10° E daylight
27 Nov - 23:03:57 10° NW 23:13:25 87° SW 23:32:54 10° SE daylight
